[[{"header":{"parameterUnit":"m.s-1","parameterCategory":1,"la1":30.2991,"la2":30.254,"lo1":-89.0895,"lo2":-89.0444,"dy":0.0017,"dx":0.0017,"nx":28,"ny":28,"refTime":"2025-04-29T09:00:00:Z","depth":0,"parameterNumber":2,"parameterNumberName":"U-component_of_WINDS"},"data":[0,0,0,0,0,0,0,0,0,0,0,0,0,0,0,0,0,0,0,0,0,0,0,0,0,0,0,0,0,0,0,0,0,0,0,0,0,0,0,0,0,0,0,0,0,0,0,0,0,0,0,0,0,0,0,0,0,0,-1.3093,-1.3094,0,-1.317,-1.3171,-1.3172,-1.3191,-1.3191,-1.319,-1.319,-1.3272,-1.3275,-1.3278,0,0,0,0,0,0,0,0,0,0,0,0,0,-1.2968,-1.297,-1.3093,-1.3094,-1.3095,-1.317,-1.3171,-1.3172,-1.3191,-1.3191,-1.319,-1.3189,-1.3271,-1.3275,-1.3278,0,0,0,0,0,0,0,0,0,0,0,0,0,-1.3031,-1.297,-1.3093,-1.3113,-1.3116,-1.317,-1.3171,-1.3172,-1.3191,-1.3191,-1.319,-1.3189,-1.327,-1.3274,-1.3278,-1.3318,0,0,-1.329,-1.3292,0,0,0,0,0,0,0,0,-1.3027,-1.3036,-1.3109,-1.3112,-1.3115,-1.317,-1.3157,-1.3221,-1.3191,-1.3163,-1.319,-1.3189,-1.3239,-1.3246,-1.3262,-1.3322,-1.3325,-1.3291,-1.3293,-1.3295,-1.3296,0,0,0,0,0,0,0,-1.3023,-1.3033,-1.3124,-1.3111,-1.3114,-1.312,-1.3129,-1.3169,-1.3204,-1.3165,-1.3167,-1.3175,-1.3241,-1.3258,-1.3264,-1.3327,-1.3291,-1.3294,-1.3297,-1.3298,-1.3424,-1.3425,0,0,0,0,0,0,-1.3014,-1.3029,-1.3121,-1.3126,-1.3068,-1.3123,-1.3132,-1.3153,-1.3204,-1.3211,-1.3176,-1.3176,-1.3252,-1.3259,-1.3267,-1.3317,-1.3295,-1.3299,-1.3301,-1.3423,-1.3424,-1.3426,0,0,0,0,0,0,-1.3012,-1.3022,-1.3118,-1.3078,-1.309,-1.3126,-1.3149,-1.3155,-1.3172,-1.3212,-1.3219,-1.3187,-1.3251,-1.3261,-1.3305,-1.332,-1.33,-1.3304,-1.3422,-1.3424,-1.3425,-1.3418,0,0,0,0,0,0,-1.3008,-1.3021,-1.3036,-1.3078,-1.3092,-1.3153,-1.315,-1.3157,-1.3179,-1.318,-1.3224,-1.3231,-1.3251,-1.3299,-1.3309,-1.3326,-1.3307,-1.3421,-1.3423,-1.3425,-1.3417,-1.3419,-1.3421,0,0,0,0,0,-1.3003,-1.3031,-1.3036,-1.3047,-1.3111,-1.3154,-1.3163,-1.3185,-1.318,-1.3195,-1.3221,-1.3229,-1.3317,-1.3303,-1.3315,-1.3333,-1.342,-1.3422,-1.3424,-1.3416,-1.3419,-1.3421,0,0,0,0,0,0,-1.2991,-1.3037,-1.3043,-1.3085,-1.3115,-1.3157,-1.3177,-1.3186,-1.322,-1.3219,-1.3246,-1.3256,-1.3298,-1.332,-1.3304,-1.3375,-1.3369,-1.3373,-1.3359,-1.3361,-1.3363,-1.3357,-1.3311,0,0,0,0,0,-1.2993,-1.3023,-1.3062,-1.3096,-1.3111,-1.3141,-1.3161,-1.3175,-1.3208,-1.3222,-1.3251,-1.3283,-1.3319,-1.3341,-1.3376,-1.342,-1.3431,-1.3439,-1.344,-1.3442,-1.3445,-1.3472,-1.3476,-1.3433,-1.3432,-1.3432,0,0,-1.2998,-1.3027,-1.3044,-1.3094,-1.3119,-1.3151,-1.3152,-1.3186,-1.321,-1.3227,-1.327,-1.3292,-1.3331,-1.3376,-1.3397,-1.3395,-1.346,-1.3444,-1.3445,-1.3448,-1.3474,-1.3478,-1.3482,-1.3434,-1.3434,-1.3433,0,0,-1.3023,-1.3048,-1.3078,-1.3103,-1.3141,-1.3161,-1.3169,-1.3209,-1.3225,-1.3268,-1.3281,-1.3312,-1.3371,-1.3399,-1.342,-1.3456,-1.3466,-1.3467,-1.3477,-1.3502,-1.3505,-1.3508,-1.3522,-1.3527,-1.3471,-1.3471,-1.3471,0,-1.3025,-1.3072,-1.3093,-1.3126,-1.3148,-1.3164,-1.3197,-1.322,-1.3268,-1.3283,-1.328,-1.3356,-1.3383,-1.3435,-1.3443,-1.346,-1.3471,-1.3462,-1.3503,-1.3506,-1.351,-1.3523,-1.3528,-1.347,-1.347,-1.347,-1.347,0,-1.3073,-1.3105,-1.3126,-1.317,-1.3194,-1.3227,-1.3255,-1.3277,-1.3289,-1.3311,-1.3355,-1.3388,-1.343,-1.3443,-1.3456,-1.3497,-1.3495,-1.3497,-1.3492,-1.3513,-1.3526,-1.3531,-1.347,-1.347,-1.347,-1.347,0,0,-1.3092,-1.3148,-1.3155,-1.3175,-1.3218,-1.3245,-1.3279,-1.3318,-1.3337,-1.337,-1.34,-1.345,-1.3452,-1.3477,-1.3493,-1.3515,-1.3543,-1.3515,-1.3517,-1.352,-1.3591,-1.3589,-1.3595,-1.3549,-1.355,-1.3551,-1.3588,0,-1.3123,-1.3182,-1.3203,-1.3253,-1.3284,-1.3299,-1.3329,-1.336,-1.3381,-1.3411,-1.3435,-1.347,-1.347,-1.3486,-1.3508,-1.3535,-1.3558,-1.3532,-1.3579,-1.358,-1.3568,-1.3601,-1.36,-1.3633,-1.3593,-1.3594,-1.3595,0,-1.3167,-1.3199,-1.3251,-1.329,-1.3304,-1.333,-1.3369,-1.3397,-1.3433,-1.3447,-1.3474,-1.3489,-1.3526,-1.3519,-1.3572,-1.3554,-1.3575,-1.3591,-1.3593,-1.3598,-1.3589,-1.3608,-1.3644,-1.3649,-1.3603,-1.3602,-1.3602,0,-1.3177,-1.3233,-1.3271,-1.3288,-1.3335,-1.3353,-1.3374,-1.3409,-1.3431,-1.3465,-1.3481,-1.3519,-1.354,-1.357,-1.3596,-1.3588,-1.3647,-1.3641,-1.3661,-1.366,-1.3673,-1.3672,-1.3712,-1.3685,-1.3685,-1.3685,-1.3685,0,-1.3209,-1.3241,-1.3276,-1.33,-1.3337,-1.3361,-1.3396,-1.3418,-1.3449,-1.3479,-1.3495,-1.3523,-1.3554,-1.3587,-1.3607,-1.3648,-1.3658,-1.3671,-1.3676,-1.367,-1.3668,-1.3684,-1.3683,-1.3686,-1.3686,-1.3686,-1.3685,0,-1.3227,-1.3251,-1.3295,-1.3335,-1.3346,-1.3371,-1.3407,-1.3431,-1.3453,-1.349,-1.35,-1.3535,-1.3574,-1.3602,-1.3652,-1.3666,-1.3711,-1.3716,-1.3698,-1.3701,-1.3719,-1.3717,-1.3772,-1.378,-1.3746,-1.3747,-1.3747,0,-1.3246,-1.327,-1.3313,-1.3333,-1.3354,-1.3386,-1.3409,-1.3434,-1.3458,-1.35,-1.352,-1.356,-1.3593,-1.3655,-1.3685,-1.3724,-1.3731,-1.3747,-1.3737,-1.373,-1.3732,-1.373,-1.3733,-1.3749,-1.3749,-1.3749,-1.3749,0,-1.3278,-1.3289,-1.332,-1.3357,-1.3383,-1.3413,-1.3443,-1.346,-1.349,-1.3516,-1.3555,-1.3581,-1.3632,-1.3672,-1.3714,-1.3737,-1.3749,-1.3752,-1.3759,-1.3753,-1.3742,-1.3749,-1.3703,-1.3751,-1.3751,-1.3751,-1.375,-1.375,-1.3298,-1.332,-1.3354,-1.3389,-1.3414,-1.3442,-1.3467,-1.3491,-1.3524,-1.3566,-1.358,-1.3621,-1.3657,-1.3714,-1.3738,-1.3771,-1.3771,-1.378,-1.3783,-1.3785,-1.3785,-1.3736,-1.3779,-1.3779,-1.3779,-1.3779,-1.3779,0,-1.3331,-1.3353,-1.3385,-1.3426,-1.3454,-1.3461,-1.3495,-1.3518,-1.3554,-1.3585,-1.3617,-1.3663,-1.3702,-1.3735,-1.3775,-1.3796,-1.3803,-1.3806,-1.3805,-1.381,-1.3783,-1.3773,-1.38,-1.38,-1.38,-1.38,-1.38,-1.38,-1.3352,-1.3391,-1.3406,-1.3458,-1.3481,-1.3519,-1.3538,-1.3565,-1.359,-1.364,-1.3672,-1.3692,-1.3726,-1.3769,-1.3805,-1.3814,-1.3829,-1.3831,-1.3841,-1.3815,-1.3812,-1.381,-1.3801,-1.3833,-1.3834,-1.3866,-1.3867,-1.3867]},{"header":{"parameterUnit":"m.s-1","parameterCategory":1,"la1":30.2991,"la2":30.254,"lo1":-89.0895,"lo2":-89.0444,"dy":0.0017,"dx":0.0017,"nx":28,"ny":28,"refTime":"2025-04-29T09:00:00:Z","depth":0,"parameterNumber":3,"parameterNumberName":"V-component_of_WINDS"},"data":[0,0,0,0,0,0,0,0,0,0,0,0,0,0,0,0,0,0,0,0,0,0,0,0,0,0,0,0,0,0,0,0,0,0,0,0,0,0,0,0,0,0,0,0,0,0,0,0,0,0,0,0,0,0,0,0,0,0,5.1403,5.1403,0,5.1469,5.147,5.1471,5.1425,5.1423,5.1421,5.1419,5.1482,5.1486,5.1489,0,0,0,0,0,0,0,0,0,0,0,0,0,5.123,5.1234,5.1402,5.1403,5.1404,5.1469,5.147,5.1471,5.1426,5.1423,5.1421,5.1418,5.1481,5.1485,5.149,0,0,0,0,0,0,0,0,0,0,0,0,0,5.1302,5.1235,5.1402,5.139,5.1389,5.1469,5.147,5.1471,5.1426,5.1423,5.142,5.1417,5.148,5.1485,5.149,5.1584,0,0,5.1507,5.1509,0,0,0,0,0,0,0,0,5.1298,5.1308,5.1391,5.1391,5.139,5.1436,5.1432,5.1509,5.1427,5.1412,5.1419,5.1416,5.1469,5.1475,5.1494,5.1587,5.159,5.1507,5.151,5.1513,5.1514,0,0,0,0,0,0,0,5.1293,5.1305,5.1429,5.1392,5.1392,5.1379,5.1385,5.1447,5.1457,5.1413,5.141,5.1419,5.1468,5.1489,5.1495,5.1591,5.1507,5.1512,5.1515,5.1517,5.1764,5.1767,0,0,0,0,0,0,5.129,5.1301,5.1427,5.1431,5.1336,5.1384,5.1392,5.1424,5.1456,5.1458,5.1421,5.1416,5.1481,5.1489,5.1497,5.1609,5.1513,5.1518,5.1521,5.1761,5.1765,5.1768,0,0,0,0,0,0,5.1286,5.1301,5.1424,5.1365,5.138,5.1391,5.1427,5.1427,5.1448,5.1462,5.1463,5.1441,5.1479,5.149,5.1563,5.1611,5.152,5.1525,5.1757,5.1762,5.1767,5.1834,0,0,0,0,0,0,5.1281,5.13,5.1338,5.1366,5.1383,5.1491,5.143,5.1431,5.1458,5.1452,5.1481,5.1483,5.1478,5.1556,5.1569,5.1616,5.1529,5.1753,5.1759,5.1765,5.1828,5.1841,5.1852,0,0,0,0,0,5.1275,5.1353,5.134,5.1355,5.143,5.1494,5.1503,5.1497,5.1462,5.1499,5.1508,5.1482,5.1604,5.1564,5.1578,5.1628,5.175,5.1757,5.1765,5.1822,5.1838,5.1852,0,0,0,0,0,0,5.1327,5.1356,5.1342,5.1432,5.1461,5.1486,5.1532,5.1514,5.1552,5.1545,5.1534,5.1541,5.1618,5.163,5.1585,5.172,5.1671,5.1682,5.171,5.1725,5.1737,5.1732,5.1533,0,0,0,0,0,5.135,5.1401,5.1422,5.1499,5.1515,5.1521,5.1548,5.1541,5.157,5.1582,5.1596,5.1624,5.1668,5.1697,5.1739,5.183,5.1834,5.1871,5.1883,5.1893,5.1902,5.195,5.1966,5.1793,5.1793,5.1793,0,0,5.1395,5.1417,5.145,5.151,5.1532,5.1583,5.1531,5.1588,5.1625,5.159,5.166,5.1672,5.1702,5.1784,5.1821,5.1797,5.1951,5.1903,5.1911,5.1914,5.1959,5.1976,5.199,5.1798,5.1797,5.1797,0,0,5.1504,5.1527,5.1593,5.1617,5.1651,5.1655,5.1671,5.1699,5.1706,5.1777,5.1751,5.1795,5.1872,5.1894,5.1915,5.2033,5.201,5.2047,5.211,5.2157,5.2171,5.2183,5.2224,5.2239,5.2056,5.2056,5.2057,0,5.1556,5.1634,5.1629,5.1688,5.1714,5.1687,5.1752,5.1775,5.182,5.1838,5.1811,5.1907,5.1925,5.2012,5.2041,5.2059,5.2076,5.2043,5.217,5.2181,5.2192,5.2231,5.2247,5.2061,5.206,5.206,5.2059,0,5.1696,5.175,5.1799,5.1846,5.1878,5.194,5.1942,5.1975,5.1965,5.1971,5.2044,5.2065,5.211,5.213,5.2121,5.2216,5.2199,5.2171,5.2121,5.2213,5.225,5.2265,5.2067,5.2065,5.2064,5.2063,0,0,5.1839,5.1882,5.19,5.1921,5.1957,5.1998,5.2058,5.2104,5.2132,5.2164,5.2213,5.2279,5.2253,5.2277,5.227,5.2311,5.2402,5.2278,5.2278,5.2299,5.2507,5.2528,5.2545,5.2388,5.2391,5.2393,5.2504,0,5.1949,5.2056,5.2053,5.2152,5.2201,5.2176,5.2228,5.2254,5.2262,5.2303,5.231,5.2357,5.232,5.2334,5.2374,5.2383,5.2444,5.2375,5.2432,5.2434,5.2424,5.2564,5.2586,5.269,5.2519,5.2521,5.2523,0,5.2092,5.2131,5.2235,5.2264,5.2285,5.2332,5.2373,5.2414,5.2443,5.2446,5.2473,5.246,5.2518,5.2468,5.2548,5.2501,5.2524,5.2532,5.2536,5.254,5.2483,5.2571,5.2723,5.2738,5.2545,5.2543,5.2542,0,5.2185,5.2263,5.2336,5.2354,5.239,5.2423,5.2439,5.2465,5.2493,5.2529,5.2547,5.2589,5.2611,5.2643,5.264,5.2604,5.2721,5.2671,5.2724,5.2724,5.2748,5.2747,5.2905,5.2765,5.2765,5.2765,5.2765,0,5.2308,5.2372,5.2378,5.2422,5.2493,5.2488,5.2558,5.257,5.2594,5.2639,5.2619,5.2661,5.2656,5.2698,5.2696,5.2762,5.2772,5.2775,5.2773,5.2776,5.2775,5.279,5.2782,5.2769,5.2768,5.2767,5.2767,0,5.2423,5.243,5.2507,5.2534,5.2543,5.2594,5.2616,5.2658,5.2664,5.2721,5.2734,5.2743,5.2791,5.2792,5.2847,5.2845,5.2926,5.2917,5.2917,5.2914,5.2967,5.2962,5.3139,5.3162,5.3008,5.301,5.3011,0,5.2501,5.255,5.2584,5.2613,5.2632,5.268,5.2708,5.2705,5.2736,5.2773,5.2809,5.2856,5.2893,5.2971,5.2982,5.3023,5.3014,5.3074,5.302,5.3021,5.3014,5.3011,5.3015,5.3084,5.3085,5.3087,5.3088,0,5.2638,5.2639,5.2682,5.2727,5.2762,5.2796,5.2828,5.2853,5.2853,5.2888,5.2938,5.2967,5.3024,5.307,5.3111,5.3125,5.3106,5.3105,5.3119,5.3122,5.312,5.3121,5.2944,5.31,5.3099,5.3098,5.3098,5.3097,5.2736,5.2778,5.2809,5.2857,5.2881,5.2912,5.2952,5.2964,5.3006,5.3053,5.3048,5.3104,5.3131,5.3183,5.3201,5.3243,5.3222,5.3243,5.3248,5.3253,5.3259,5.3114,5.3251,5.325,5.325,5.325,5.325,0,5.2871,5.289,5.2935,5.2981,5.3019,5.3,5.3034,5.3066,5.3116,5.3144,5.3181,5.3238,5.3283,5.3298,5.334,5.3371,5.3364,5.3383,5.338,5.3383,5.3275,5.3258,5.3388,5.3388,5.3388,5.3388,5.3388,5.3388,5.2946,5.3017,5.3021,5.3103,5.312,5.3176,5.3197,5.3224,5.3246,5.3312,5.3349,5.3359,5.3381,5.3425,5.3465,5.3468,5.3484,5.3507,5.3506,5.3405,5.3391,5.3377,5.3361,5.351,5.3511,5.361,5.3611,5.3611]}]]